| time (UTC) | temp F | wind direction | speed knots | gust knots | rain 1hr in | rain 24hr in | rain mn in | humidity % | barometer mb |
| 20260506153249 | 59 | 340 | 1.7 | 3.5 | 0.00 | 0.03 | 0.00 | 71 | 1011.5 |
| 20260506151710 | 58 | 39 | 1.7 | 5.2 | 0.00 | 0.03 | 0.00 | 71 | 1011.6 |
| 20260506145714 | 58 | 0 | 0.0 | 3.5 | 0.00 | 0.03 | 0.00 | 71 | 1011.6 |
| 20260506144711 | 58 | 56 | 0.9 | 2.6 | 0.00 | 0.03 | 0.00 | 74 | 1011.6 |
| 20260506144211 | 57 | 57 | 0.9 | 2.6 | 0.00 | 0.03 | 0.00 | 75 | 1011.6 |
| 20260506143210 | 56 | 0 | 0.0 | 2.6 | 0.00 | 0.03 | 0.00 | 76 | 1011.4 |
| 20260506140506 | 54 | 67 | 2.6 | 4.3 | 0.00 | 0.03 | 0.00 | 84 | 1011.1 |
| 20260506140006 | 52 | 86 | 2.6 | 4.3 | 0.00 | 0.03 | 0.00 | 87 | 1011.1 |
| 20260506133506 | 50 | 97 | 3.5 | 5.2 | 0.00 | 0.03 | 0.00 | 86 | 1011.1 |
| 20260506131006 | 51 | 95 | 2.6 | 5.2 | 0.00 | 0.03 | 0.00 | 83 | 1010.9 |
| 20260506125006 | 53 | 26 | 0.9 | 3.5 | 0.00 | 0.03 | 0.00 | 82 | 1010.7 |
| 20260506124006 | 53 | 27 | 0.9 | 4.3 | 0.00 | 0.03 | 0.00 | 81 | 1010.6 |
| 20260506123006 | 53 | 34 | 2.6 | 4.3 | 0.00 | 0.03 | 0.00 | 81 | 1010.5 |
| 20260506122506 | 53 | 36 | 2.6 | 5.2 | 0.00 | 0.03 | 0.00 | 80 | 1010.4 |
| 20260506121508 | 54 | 32 | 3.5 | 7.0 | 0.00 | 0.03 | 0.00 | 80 | 1010.4 |
| 20260506120506 | 54 | 22 | 3.5 | 7.0 | 0.00 | 0.03 | 0.00 | 78 | 1010.4 |
| 20260506114852 | 54 | 46 | 2.6 | 4.3 | 0.00 | 0.03 | 0.00 | 80 | 1010.5 |
| 20260506112852 | 54 | 232 | 0.9 | 2.6 | 0.00 | 0.03 | 0.00 | 79 | 1010.2 |
| 20260506112352 | 54 | 232 | 1.7 | 2.6 | 0.00 | 0.03 | 0.00 | 78 | 1010.2 |
| 20260506105852 | 54 | 233 | 1.7 | 4.3 | 0.00 | 0.03 | 0.00 | 77 | 1010.0 |
| 20260506104444 | 54 | 175 | 1.7 | 5.2 | 0.00 | 0.03 | 0.00 | 78 | 1009.8 |
| 20260506103944 | 54 | 169 | 2.6 | 5.2 | 0.00 | 0.03 | 0.00 | 79 | 1009.8 |
| 20260506102444 | 53 | 150 | 2.6 | 5.2 | 0.00 | 0.03 | 0.00 | 80 | 1009.6 |
| 20260506101945 | 53 | 147 | 4.3 | 6.1 | 0.00 | 0.04 | 0.00 | 80 | 1009.7 |
| 20260506095944 | 51 | 140 | 5.2 | 7.0 | 0.00 | 0.04 | 0.00 | 81 | 1009.6 |
| 20260506095444 | 51 | 140 | 6.1 | 7.8 | 0.00 | 0.04 | 0.00 | 80 | 1009.5 |
| 20260506094444 | 51 | 139 | 6.1 | 7.8 | 0.00 | 0.04 | 0.00 | 79 | 1009.5 |
| 20260506093944 | 52 | 135 | 6.1 | 7.8 | 0.00 | 0.05 | 0.00 | 78 | 1009.5 |
| 20260506092944 | 52 | 130 | 7.0 | 7.8 | 0.00 | 0.07 | 0.00 | 79 | 1009.5 |
| 20260506091239 | 52 | 128 | 7.0 | 8.7 | 0.00 | 0.10 | 0.00 | 79 | 1009.4 |
| 20260506090737 | 52 | 130 | 7.0 | 8.7 | 0.00 | 0.11 | 0.00 | 79 | 1009.4 |
| 20260506090237 | 52 | 129 | 6.1 | 8.7 | 0.00 | 0.11 | 0.00 | 79 | 1009.4 |
| 20260506085349 | 52 | 131 | 7.0 | 7.8 | 0.00 | 0.12 | 0.00 | 80 | 1009.5 |
| 20260506084349 | 51 | 121 | 6.1 | 8.7 | 0.00 | 0.12 | 0.00 | 81 | 1009.5 |
| 20260506083849 | 50 | 121 | 7.0 | 8.7 | 0.00 | 0.12 | 0.00 | 83 | 1009.5 |
| 20260506083349 | 49 | 130 | 6.1 | 7.0 | 0.00 | 0.12 | 0.00 | 83 | 1009.6 |
| 20260506081850 | 49 | 137 | 4.3 | 6.1 | 0.00 | 0.12 | 0.00 | 83 | 1009.5 |
| 20260506080349 | 50 | 113 | 7.0 | 7.8 | 0.00 | 0.12 | 0.00 | 81 | 1009.5 |
| 20260506072121 | 53 | 112 | 6.1 | 8.7 | 0.00 | 0.12 | 0.00 | 74 | 1009.2 |
| 20260506070121 | 53 | 113 | 7.0 | 10.4 | 0.00 | 0.12 | 0.00 | 74 | 1009.1 |
| 20260506060623 | 52 | 129 | 5.2 | 7.0 | 0.00 | 0.12 | 0.00 | 77 | 1008.5 |
| 20260506051121 | 53 | 130 | 5.2 | 6.1 | 0.00 | 0.12 | 0.00 | 78 | 1008.2 |
| 20260506050621 | 54 | 121 | 3.5 | 6.1 | 0.00 | 0.12 | 0.00 | 78 | 1008.2 |
| 20260506044621 | 54 | 108 | 2.6 | 5.2 | 0.00 | 0.12 | 0.00 | 82 | 1008.0 |
| 20260506043121 | 55 | 107 | 1.7 | 3.5 | 0.00 | 0.12 | 0.00 | 84 | 1007.9 |
| 20260506042621 | 55 | 107 | 1.7 | 2.6 | 0.00 | 0.12 | 0.00 | 84 | 1007.8 |
| 20260506041121 | 54 | 107 | 0.9 | 5.2 | 0.00 | 0.12 | 0.00 | 84 | 1007.6 |
| 20260506035621 | 55 | 87 | 3.5 | 5.2 | 0.00 | 0.12 | 0.00 | 80 | 1007.4 |
| 20260506034621 | 57 | 74 | 2.6 | 5.2 | 0.00 | 0.12 | 0.00 | 74 | 1007.2 |
| 20260506034121 | 58 | 71 | 2.6 | 5.2 | 0.00 | 0.12 | 0.00 | 72 | 1007.2 |
| 20260506031915 | 59 | 60 | 2.6 | 4.3 | 0.00 | 0.12 | 0.00 | 70 | 1006.9 |
| 20260506024914 | 59 | 55 | 2.6 | 4.3 | 0.00 | 0.12 | 0.00 | 69 | 1006.6 |
| 20260506023913 | 59 | 56 | 2.6 | 4.3 | 0.00 | 0.12 | 0.00 | 69 | 1006.4 |
| 20260506020114 | 59 | 60 | 2.6 | 4.3 | 0.00 | 0.12 | 0.00 | 69 | 1006.3 |
| 20260506014614 | 59 | 49 | 2.6 | 4.3 | 0.00 | 0.12 | 0.00 | 70 | 1006.2 |
| 20260506011330 | 59 | 37 | 4.3 | 7.0 | 0.00 | 0.12 | 0.00 | 68 | 1006.1 |
| 20260506005329 | 59 | 41 | 3.5 | 5.2 | 0.00 | 0.12 | 0.00 | 69 | 1006.1 |
| 20260506004039 | 59 | 30 | 3.5 | 7.0 | 0.00 | 0.12 | 0.00 | 71 | 1006.1 |
| 20260505225957 | 60 | 20 | 6.1 | 9.6 | 0.00 | 0.12 | 0.00 | 74 | 1005.9 |
| 20260505223500 | 61 | 0 | 0.0 | 5.2 | 0.00 | 0.12 | 0.00 | 72 | 1006.2 |
| 20260505221959 | 59 | 0 | 0.0 | 4.3 | 0.00 | 0.12 | 0.00 | 75 | 1006.5 |
| 20260505221459 | 59 | 129 | 1.7 | 4.3 | 0.00 | 0.12 | 0.00 | 76 | 1006.5 |
| 20260505213916 | 56 | 40 | 2.6 | 4.3 | 0.00 | 0.12 | 0.00 | 86 | 1006.9 |
| 20260505213416 | 55 | 39 | 1.7 | 4.3 | 0.00 | 0.12 | 0.00 | 86 | 1007.1 |